| time (UTC) | temp C | wind direction | speed KPH | gust KPH | rain 1hr cm | rain 24hr cm | rain mn cm | humidity % | barometer mb |
| 20260506020126 | 12 | 72 | 14.5 | 16.1 | 0.00 | 0.00 | 0.00 | 58 | 1010.8 |
| 20260506015623 | 12 | 58 | 12.9 | 30.6 | 0.00 | 0.00 | 0.00 | 56 | 1010.4 |
| 20260506015120 | 12 | 67 | 24.1 | 29.0 | 0.00 | 0.00 | 0.00 | 53 | 1010.5 |
| 20260506014618 | 13 | 87 | 17.7 | 29.0 | 0.00 | 0.00 | 0.00 | 51 | 1010.5 |
| 20260506014113 | 13 | 73 | 27.4 | 33.8 | 0.00 | 0.00 | 0.00 | 49 | 1010.2 |
| 20260506013612 | 13 | 50 | 12.9 | 27.4 | 0.00 | 0.00 | 0.00 | 48 | 1010.6 |
| 20260506013108 | 13 | 37 | 14.5 | 25.7 | 0.00 | 0.00 | 0.00 | 47 | 1010.3 |
| 20260506012604 | 13 | 37 | 20.9 | 37.0 | 0.00 | 0.00 | 0.00 | 47 | 1010.4 |
| 20260506012100 | 14 | 40 | 14.5 | 30.6 | 0.00 | 0.00 | 0.00 | 46 | 1010.2 |
| 20260506011559 | 14 | 30 | 12.9 | 29.0 | 0.00 | 0.00 | 0.00 | 46 | 1009.8 |
| 20260506011054 | 14 | 41 | 11.3 | 25.7 | 0.00 | 0.00 | 0.00 | 46 | 1009.8 |
| 20260506010548 | 14 | 55 | 9.7 | 27.4 | 0.00 | 0.00 | 0.00 | 46 | 1009.5 |
| 20260506010044 | 14 | 73 | 24.1 | 30.6 | 0.00 | 0.00 | 0.00 | 46 | 1009.2 |
| 20260506005542 | 15 | 81 | 16.1 | 32.2 | 0.00 | 0.00 | 0.00 | 46 | 1009.0 |
| 20260506005037 | 15 | 75 | 17.7 | 33.8 | 0.00 | 0.00 | 0.00 | 45 | 1009.2 |
| 20260506004535 | 15 | 76 | 27.4 | 40.2 | 0.00 | 0.00 | 0.00 | 45 | 1008.9 |
| 20260506004032 | 15 | 67 | 14.5 | 30.6 | 0.00 | 0.00 | 0.00 | 44 | 1008.7 |
| 20260506003528 | 15 | 60 | 12.9 | 33.8 | 0.00 | 0.00 | 0.00 | 44 | 1008.6 |
| 20260506003024 | 15 | 63 | 24.1 | 30.6 | 0.00 | 0.00 | 0.00 | 43 | 1008.9 |
| 20260506002520 | 16 | 78 | 29.0 | 41.8 | 0.00 | 0.00 | 0.00 | 42 | 1008.5 |
| 20260506002016 | 16 | 64 | 24.1 | 32.2 | 0.00 | 0.00 | 0.00 | 42 | 1008.5 |
| 20260506001513 | 16 | 81 | 33.8 | 40.2 | 0.00 | 0.00 | 0.00 | 42 | 1008.3 |
| 20260506001010 | 16 | 70 | 20.9 | 38.6 | 0.00 | 0.00 | 0.00 | 41 | 1008.4 |
| 20260506000508 | 17 | 83 | 22.5 | 33.8 | 0.00 | 0.00 | 0.00 | 41 | 1008.4 |
| 20260506000005 | 16 | 86 | 30.6 | 40.2 | 0.00 | 0.00 | 0.00 | 41 | 1008.4 |
| 20260505235503 | 16 | 89 | 30.6 | 32.2 | 0.00 | 0.00 | 0.00 | 41 | 1008.8 |
| 20260505234959 | 17 | 88 | 20.9 | 35.4 | 0.00 | 0.00 | 0.00 | 41 | 1008.5 |
| 20260505234456 | 17 | 99 | 30.6 | 35.4 | 0.00 | 0.00 | 0.00 | 40 | 1008.6 |
| 20260505233953 | 17 | 91 | 29.0 | 33.8 | 0.00 | 0.00 | 0.00 | 40 | 1008.5 |
| 20260505233451 | 17 | 80 | 27.4 | 37.0 | 0.00 | 0.00 | 0.00 | 40 | 1008.4 |
| 20260505232948 | 17 | 82 | 19.3 | 30.6 | 0.00 | 0.00 | 0.00 | 40 | 1008.6 |
| 20260505232446 | 17 | 83 | 22.5 | 38.6 | 0.00 | 0.00 | 0.00 | 39 | 1008.6 |
| 20260505231943 | 17 | 84 | 25.7 | 32.2 | 0.00 | 0.00 | 0.00 | 39 | 1008.6 |
| 20260505231440 | 17 | 81 | 25.7 | 41.8 | 0.00 | 0.00 | 0.00 | 39 | 1008.5 |
| 20260505230938 | 17 | 95 | 30.6 | 37.0 | 0.00 | 0.00 | 0.00 | 40 | 1008.8 |
| 20260505230436 | 17 | 100 | 29.0 | 37.0 | 0.00 | 0.00 | 0.00 | 39 | 1008.6 |
| 20260505225932 | 17 | 89 | 25.7 | 37.0 | 0.00 | 0.00 | 0.00 | 39 | 1008.8 |
| 20260505225429 | 17 | 94 | 30.6 | 37.0 | 0.00 | 0.00 | 0.00 | 39 | 1008.8 |
| 20260505224925 | 17 | 99 | 29.0 | 29.0 | 0.00 | 0.00 | 0.00 | 39 | 1009.0 |
| 20260505224422 | 17 | 85 | 27.4 | 29.0 | 0.00 | 0.00 | 0.00 | 39 | 1008.7 |
| 20260505223919 | 17 | 62 | 25.7 | 27.4 | 0.00 | 0.00 | 0.00 | 39 | 1009.0 |
| 20260505223416 | 17 | 104 | 17.7 | 29.0 | 0.00 | 0.00 | 0.00 | 39 | 1009.2 |
| 20260505222912 | 17 | 95 | 24.1 | 30.6 | 0.00 | 0.00 | 0.00 | 39 | 1008.9 |
| 20260505222408 | 17 | 70 | 16.1 | 30.6 | 0.00 | 0.00 | 0.00 | 39 | 1009.3 |
| 20260505221904 | 17 | 39 | 8.0 | 16.1 | 0.00 | 0.00 | 0.00 | 38 | 1009.3 |
| 20260505221402 | 18 | 71 | 20.9 | 24.1 | 0.00 | 0.00 | 0.00 | 38 | 1009.3 |
| 20260505220859 | 18 | 24 | 8.0 | 12.9 | 0.00 | 0.00 | 0.00 | 38 | 1009.3 |
| 20260505220356 | 18 | 78 | 11.3 | 20.9 | 0.00 | 0.00 | 0.00 | 38 | 1009.5 |
| 20260505215854 | 18 | 79 | 11.3 | 17.7 | 0.00 | 0.00 | 0.00 | 38 | 1009.6 |
| 20260505215351 | 17 | 15 | 6.4 | 17.7 | 0.00 | 0.00 | 0.00 | 39 | 1009.5 |
| 20260505214849 | 18 | 76 | 14.5 | 17.7 | 0.00 | 0.00 | 0.00 | 38 | 1009.5 |
| 20260505214346 | 18 | 77 | 9.7 | 17.7 | 0.00 | 0.00 | 0.00 | 38 | 1009.7 |
| 20260505213844 | 18 | 14 | 11.3 | 27.4 | 0.00 | 0.00 | 0.00 | 38 | 1009.8 |
| 20260505213341 | 18 | 52 | 8.0 | 19.3 | 0.00 | 0.00 | 0.00 | 37 | 1009.8 |
| 20260505212837 | 18 | 38 | 4.8 | 9.7 | 0.00 | 0.00 | 0.00 | 37 | 1010.3 |
| 20260505212334 | 18 | 44 | 6.4 | 17.7 | 0.00 | 0.00 | 0.00 | 38 | 1010.2 |
| 20260505211830 | 18 | 92 | 17.7 | 19.3 | 0.00 | 0.00 | 0.00 | 38 | 1010.4 |
| 20260505211328 | 18 | 44 | 11.3 | 24.1 | 0.00 | 0.00 | 0.00 | 39 | 1010.5 |
| 20260505210824 | 17 | 85 | 17.7 | 22.5 | 0.00 | 0.00 | 0.00 | 39 | 1010.6 |
| 20260505210322 | 17 | 107 | 16.1 | 30.6 | 0.00 | 0.00 | 0.00 | 39 | 1010.8 |
| 20260505205818 | 17 | 80 | 12.9 | 25.7 | 0.00 | 0.00 | 0.00 | 39 | 1010.7 |
| 20260505205317 | 17 | 91 | 22.5 | 25.7 | 0.00 | 0.00 | 0.00 | 39 | 1010.7 |
| 20260505204813 | 17 | 73 | 19.3 | 30.6 | 0.00 | 0.00 | 0.00 | 39 | 1010.9 |
| 20260505204311 | 18 | 80 | 9.7 | 11.3 | 0.00 | 0.00 | 0.00 | 39 | 1011.3 |
| 20260505203808 | 17 | 43 | 14.5 | 17.7 | 0.00 | 0.00 | 0.00 | 38 | 1011.2 |
| 20260505203305 | 17 | 82 | 19.3 | 20.9 | 0.00 | 0.00 | 0.00 | 39 | 1011.1 |
| 20260505202801 | 17 | 89 | 9.7 | 16.1 | 0.00 | 0.00 | 0.00 | 39 | 1011.1 |
| 20260505202257 | 17 | 79 | 9.7 | 14.5 | 0.00 | 0.00 | 0.00 | 39 | 1011.2 |
| 20260505201754 | 17 | 78 | 9.7 | 24.1 | 0.00 | 0.00 | 0.00 | 39 | 1010.9 |
| 20260505201251 | 18 | 105 | 19.3 | 20.9 | 0.00 | 0.00 | 0.00 | 38 | 1010.9 |
| 20260505200750 | 18 | 348 | 8.0 | 12.9 | 0.00 | 0.00 | 0.00 | 39 | 1011.2 |
| 20260505200246 | 17 | 64 | 8.0 | 17.7 | 0.00 | 0.00 | 0.00 | 40 | 1010.9 |
| 20260505195741 | 17 | 122 | 8.0 | 14.5 | 0.00 | 0.00 | 0.00 | 39 | 1010.9 |
| 20260505195239 | 17 | 38 | 16.1 | 20.9 | 0.00 | 0.00 | 0.00 | 39 | 1010.9 |
| 20260505194736 | 18 | 77 | 17.7 | 19.3 | 0.00 | 0.00 | 0.00 | 39 | 1011.2 |
| 20260505194233 | 17 | 77 | 14.5 | 27.4 | 0.00 | 0.00 | 0.00 | 40 | 1010.9 |
| 20260505193728 | 17 | 53 | 6.4 | 25.7 | 0.00 | 0.00 | 0.00 | 40 | 1010.9 |
| 20260505193226 | 17 | 95 | 17.7 | 29.0 | 0.00 | 0.00 | 0.00 | 39 | 1010.7 |
| 20260505192725 | 18 | 15 | 14.5 | 20.9 | 0.00 | 0.00 | 0.00 | 39 | 1010.9 |
| 20260505192222 | 18 | 35 | 8.0 | 24.1 | 0.00 | 0.00 | 0.00 | 40 | 1010.8 |
| 20260505191720 | 17 | 60 | 8.0 | 20.9 | 0.00 | 0.00 | 0.00 | 41 | 1011.1 |
| 20260505191218 | 17 | 63 | 6.4 | 20.9 | 0.00 | 0.00 | 0.00 | 40 | 1010.7 |
| 20260505190714 | 18 | 36 | 14.5 | 16.1 | 0.00 | 0.00 | 0.00 | 40 | 1011.2 |
| 20260505190214 | 17 | 47 | 12.9 | 17.7 | 0.00 | 0.00 | 0.00 | 41 | 1011.3 |
| 20260505185711 | 17 | 85 | 14.5 | 16.1 | 0.00 | 0.00 | 0.00 | 42 | 1011.4 |
| 20260505185207 | 16 | 21 | 9.7 | 20.9 | 0.00 | 0.00 | 0.00 | 42 | 1011.6 |
| 20260505184703 | 16 | 12 | 12.9 | 20.9 | 0.00 | 0.00 | 0.00 | 43 | 1011.4 |
| 20260505184201 | 16 | 52 | 12.9 | 20.9 | 0.00 | 0.00 | 0.00 | 42 | 1011.2 |
| 20260505183657 | 16 | 59 | 11.3 | 22.5 | 0.00 | 0.00 | 0.00 | 42 | 1011.5 |
| 20260505183155 | 16 | 25 | 17.7 | 22.5 | 0.00 | 0.00 | 0.00 | 42 | 1011.6 |
| 20260505182651 | 17 | 43 | 16.1 | 24.1 | 0.00 | 0.00 | 0.00 | 42 | 1011.4 |
| 20260505182148 | 16 | 37 | 6.4 | 16.1 | 0.00 | 0.00 | 0.00 | 43 | 1011.4 |
| 20260505181644 | 16 | 339 | 9.7 | 22.5 | 0.00 | 0.00 | 0.00 | 44 | 1011.5 |
| 20260505181142 | 16 | 47 | 16.1 | 22.5 | 0.00 | 0.00 | 0.00 | 44 | 1011.5 |
| 20260505180638 | 16 | 22 | 16.1 | 29.0 | 0.00 | 0.00 | 0.00 | 44 | 1011.7 |
| 20260505180135 | 16 | 28 | 14.5 | 22.5 | 0.00 | 0.00 | 0.00 | 44 | 1011.5 |
| 20260505175631 | 16 | 40 | 11.3 | 20.9 | 0.00 | 0.00 | 0.00 | 43 | 1011.7 |
| 20260505175122 | 16 | 20 | 12.9 | 29.0 | 0.00 | 0.00 | 0.00 | 43 | 1012.0 |
| 20260505174619 | 16 | 31 | 6.4 | 22.5 | 0.00 | 0.00 | 0.00 | 42 | 1012.0 |
| 20260505174115 | 16 | 3 | 17.7 | 20.9 | 0.00 | 0.00 | 0.00 | 43 | 1012.0 |
| 20260505173612 | 16 | 32 | 6.4 | 29.0 | 0.00 | 0.00 | 0.00 | 42 | 1012.1 |
| 20260505173108 | 17 | 341 | 16.1 | 27.4 | 0.00 | 0.00 | 0.00 | 42 | 1011.8 |
| 20260505172606 | 17 | 33 | 22.5 | 33.8 | 0.00 | 0.00 | 0.00 | 43 | 1011.6 |
| 20260505172103 | 16 | 38 | 14.5 | 25.7 | 0.00 | 0.00 | 0.00 | 43 | 1011.6 |
| 20260505171557 | 16 | 31 | 24.1 | 29.0 | 0.00 | 0.00 | 0.00 | 42 | 1011.5 |
| 20260505171055 | 17 | 22 | 14.5 | 24.1 | 0.00 | 0.00 | 0.00 | 44 | 1011.8 |
| 20260505170551 | 16 | 70 | 29.0 | 30.6 | 0.00 | 0.00 | 0.00 | 45 | 1011.7 |
| 20260505170048 | 16 | 54 | 14.5 | 27.4 | 0.00 | 0.00 | 0.00 | 45 | 1011.8 |
| 20260505165543 | 16 | 40 | 16.1 | 25.7 | 0.00 | 0.00 | 0.00 | 44 | 1011.8 |
| 20260505165039 | 16 | 34 | 17.7 | 32.2 | 0.00 | 0.00 | 0.00 | 44 | 1011.4 |
| 20260505164535 | 15 | 49 | 14.5 | 24.1 | 0.00 | 0.00 | 0.00 | 44 | 1011.5 |
| 20260505164033 | 15 | 23 | 17.7 | 32.2 | 0.00 | 0.00 | 0.00 | 44 | 1011.8 |
| 20260505163531 | 16 | 33 | 16.1 | 32.2 | 0.00 | 0.00 | 0.00 | 44 | 1011.7 |
| 20260505163027 | 16 | 65 | 11.3 | 24.1 | 0.00 | 0.00 | 0.00 | 44 | 1011.5 |
| 20260505162521 | 15 | 20 | 20.9 | 32.2 | 0.00 | 0.00 | 0.00 | 45 | 1011.6 |
| 20260505162018 | 15 | 53 | 16.1 | 24.1 | 0.00 | 0.00 | 0.00 | 46 | 1011.7 |
| 20260505161515 | 14 | 60 | 11.3 | 30.6 | 0.00 | 0.00 | 0.00 | 46 | 1011.7 |
| 20260505161012 | 15 | 58 | 16.1 | 33.8 | 0.00 | 0.00 | 0.00 | 46 | 1011.7 |
| 20260505160510 | 15 | 10 | 20.9 | 30.6 | 0.00 | 0.00 | 0.00 | 46 | 1011.6 |
| 20260505152940 | 14 | 3 | 11.3 | 35.4 | 0.00 | 0.00 | 0.00 | 45 | 1010.9 |
| 20260505152437 | 14 | 349 | 29.0 | 30.6 | 0.00 | 0.00 | 0.00 | 45 | 1010.8 |
| 20260505151932 | 13 | 353 | 14.5 | 30.6 | 0.00 | 0.00 | 0.00 | 46 | 1010.9 |
| 20260505151428 | 13 | 359 | 14.5 | 33.8 | 0.00 | 0.00 | 0.00 | 46 | 1010.6 |
| 20260505150925 | 13 | 15 | 20.9 | 29.0 | 0.00 | 0.00 | 0.00 | 46 | 1010.7 |
| 20260505150416 | 13 | 11 | 17.7 | 29.0 | 0.00 | 0.00 | 0.00 | 46 | 1010.8 |
| 20260505140335 | 12 | 348 | 22.5 | 27.4 | 0.00 | 0.00 | 0.00 | 49 | 1010.9 |
| 20260505130258 | 11 | 12 | 20.9 | 32.2 | 0.00 | 0.00 | 0.00 | 54 | 1009.3 |
| 20260505124749 | 11 | 7 | 9.7 | 30.6 | 0.00 | 0.00 | 0.00 | 56 | 1008.7 |
| 20260505124245 | 11 | 346 | 8.0 | 22.5 | 0.00 | 0.00 | 0.00 | 56 | 1008.8 |
| 20260505123741 | 11 | 353 | 17.7 | 22.5 | 0.00 | 0.00 | 0.00 | 57 | 1008.6 |
| 20260505123238 | 11 | 358 | 9.7 | 20.9 | 0.00 | 0.00 | 0.00 | 57 | 1008.7 |
| 20260505122734 | 11 | 356 | 17.7 | 25.7 | 0.00 | 0.00 | 0.00 | 57 | 1008.6 |
| 20260505122232 | 11 | 6 | 11.3 | 25.7 | 0.00 | 0.00 | 0.00 | 57 | 1008.7 |
| 20260505121728 | 11 | 333 | 12.9 | 20.9 | 0.00 | 0.00 | 0.00 | 57 | 1008.5 |
| 20260505121225 | 11 | 357 | 6.4 | 16.1 | 0.00 | 0.00 | 0.00 | 57 | 1008.5 |
| 20260505120721 | 11 | 1 | 17.7 | 20.9 | 0.00 | 0.00 | 0.00 | 56 | 1008.5 |
| 20260505120217 | 11 | 12 | 14.5 | 27.4 | 0.00 | 0.00 | 0.00 | 57 | 1008.0 |
| 20260505115716 | 11 | 356 | 11.3 | 22.5 | 0.00 | 0.00 | 0.00 | 57 | 1008.0 |
| 20260505115214 | 11 | 23 | 19.3 | 22.5 | 0.00 | 0.00 | 0.00 | 57 | 1008.0 |
| 20260505114711 | 12 | 9 | 9.7 | 20.9 | 0.00 | 0.00 | 0.00 | 57 | 1008.2 |
| 20260505114207 | 12 | 359 | 22.5 | 30.6 | 0.00 | 0.00 | 0.00 | 57 | 1008.2 |
| 20260505113704 | 12 | 338 | 9.7 | 24.1 | 0.00 | 0.00 | 0.00 | 57 | 1008.2 |
| 20260505113200 | 12 | 352 | 8.0 | 27.4 | 0.00 | 0.00 | 0.00 | 57 | 1008.0 |
| 20260505112657 | 12 | 1 | 16.1 | 30.6 | 0.00 | 0.00 | 0.00 | 57 | 1007.9 |
| 20260505112155 | 12 | 350 | 19.3 | 29.0 | 0.00 | 0.00 | 0.00 | 57 | 1007.8 |
| 20260505111654 | 12 | 5 | 24.1 | 27.4 | 0.00 | 0.00 | 0.00 | 57 | 1008.3 |
| 20260505111150 | 13 | 0 | 14.5 | 22.5 | 0.00 | 0.00 | 0.00 | 57 | 1008.0 |
| 20260505110646 | 13 | 357 | 16.1 | 30.6 | 0.00 | 0.00 | 0.00 | 57 | 1007.8 |
| 20260505110144 | 13 | 351 | 17.7 | 30.6 | 0.00 | 0.00 | 0.00 | 56 | 1007.7 |
| 20260505102120 | 15 | 335 | 27.4 | 45.1 | 0.00 | 0.00 | 0.00 | 45 | 1007.5 |
| 20260505101618 | 16 | 336 | 20.9 | 38.6 | 0.00 | 0.00 | 0.00 | 42 | 1007.4 |
| 20260505101114 | 16 | 332 | 32.2 | 49.9 | 0.00 | 0.00 | 0.00 | 39 | 1007.4 |
| 20260505100610 | 17 | 334 | 27.4 | 51.5 | 0.00 | 0.00 | 0.00 | 34 | 1007.0 |
| 20260505100108 | 17 | 333 | 30.6 | 35.4 | 0.00 | 0.00 | 0.00 | 31 | 1006.8 |
| 20260505095604 | 17 | 333 | 12.9 | 27.4 | 0.00 | 0.00 | 0.00 | 30 | 1006.6 |
| 20260505095100 | 17 | 316 | 27.4 | 32.2 | 0.00 | 0.00 | 0.00 | 30 | 1006.6 |
| 20260505094557 | 17 | 308 | 20.9 | 22.5 | 0.00 | 0.00 | 0.00 | 30 | 1006.2 |
| 20260505094053 | 17 | 293 | 11.3 | 16.1 | 0.00 | 0.00 | 0.00 | 30 | 1006.4 |
| 20260505093549 | 17 | 308 | 14.5 | 17.7 | 0.00 | 0.00 | 0.00 | 30 | 1006.1 |
| 20260505093047 | 17 | 322 | 14.5 | 20.9 | 0.00 | 0.00 | 0.00 | 29 | 1006.0 |
| 20260505092544 | 18 | 308 | 17.7 | 22.5 | 0.00 | 0.00 | 0.00 | 29 | 1005.9 |
| 20260505092043 | 17 | 263 | 22.5 | 33.8 | 0.00 | 0.00 | 0.00 | 30 | 1005.6 |
| 20260505091539 | 16 | 261 | 14.5 | 22.5 | 0.00 | 0.00 | 0.00 | 31 | 1005.5 |
| 20260505091037 | 16 | 263 | 14.5 | 17.7 | 0.00 | 0.00 | 0.00 | 31 | 1005.6 |
| 20260505090535 | 17 | 272 | 12.9 | 14.5 | 0.00 | 0.00 | 0.00 | 30 | 1005.2 |
| 20260505090033 | 17 | 284 | 9.7 | 12.9 | 0.00 | 0.00 | 0.00 | 29 | 1005.2 |
| 20260505085530 | 17 | 249 | 12.9 | 16.1 | 0.00 | 0.00 | 0.00 | 29 | 1005.1 |
| 20260505085028 | 18 | 256 | 12.9 | 16.1 | 0.00 | 0.00 | 0.00 | 29 | 1005.1 |
| 20260505084526 | 18 | 238 | 19.3 | 20.9 | 0.00 | 0.00 | 0.00 | 29 | 1005.0 |
| 20260505084024 | 18 | 263 | 14.5 | 19.3 | 0.00 | 0.00 | 0.00 | 28 | 1005.0 |
| 20260505083521 | 18 | 240 | 16.1 | 22.5 | 0.00 | 0.00 | 0.00 | 28 | 1005.0 |
| 20260505083017 | 18 | 244 | 17.7 | 24.1 | 0.00 | 0.00 | 0.00 | 28 | 1005.0 |
| 20260505082513 | 19 | 251 | 22.5 | 27.4 | 0.00 | 0.00 | 0.00 | 27 | 1005.1 |
| 20260505082010 | 19 | 237 | 19.3 | 27.4 | 0.00 | 0.00 | 0.00 | 27 | 1004.8 |
| 20260505081507 | 19 | 244 | 22.5 | 29.0 | 0.00 | 0.00 | 0.00 | 27 | 1004.8 |
| 20260505081003 | 20 | 251 | 19.3 | 27.4 | 0.00 | 0.00 | 0.00 | 27 | 1005.0 |
| 20260505080500 | 20 | 250 | 20.9 | 30.6 | 0.00 | 0.00 | 0.00 | 26 | 1004.9 |
| 20260505075955 | 20 | 242 | 24.1 | 30.6 | 0.00 | 0.00 | 0.00 | 26 | 1005.0 |
| 20260505075452 | 20 | 248 | 19.3 | 33.8 | 0.00 | 0.00 | 0.00 | 26 | 1004.9 |
| 20260505074949 | 20 | 250 | 19.3 | 32.2 | 0.00 | 0.00 | 0.00 | 26 | 1005.1 |
| 20260505074447 | 20 | 247 | 25.7 | 29.0 | 0.00 | 0.00 | 0.00 | 26 | 1005.1 |
| 20260505073944 | 20 | 244 | 20.9 | 29.0 | 0.00 | 0.00 | 0.00 | 26 | 1005.1 |
| 20260505073441 | 20 | 247 | 20.9 | 30.6 | 0.00 | 0.00 | 0.00 | 26 | 1005.4 |
| 20260505072938 | 20 | 247 | 19.3 | 30.6 | 0.00 | 0.00 | 0.00 | 26 | 1005.2 |
| 20260505072434 | 20 | 244 | 25.7 | 32.2 | 0.00 | 0.00 | 0.00 | 26 | 1005.5 |
| 20260505071931 | 20 | 246 | 22.5 | 30.6 | 0.00 | 0.00 | 0.00 | 25 | 1005.2 |
| 20260505071427 | 20 | 238 | 27.4 | 30.6 | 0.00 | 0.00 | 0.00 | 25 | 1005.2 |
| 20260505070925 | 20 | 239 | 27.4 | 37.0 | 0.00 | 0.00 | 0.00 | 25 | 1005.2 |
| 20260505070421 | 20 | 235 | 22.5 | 33.8 | 0.00 | 0.00 | 0.00 | 26 | 1005.4 |
| 20260505065917 | 20 | 234 | 22.5 | 29.0 | 0.00 | 0.00 | 0.00 | 26 | 1005.6 |
| 20260505065414 | 20 | 236 | 22.5 | 35.4 | 0.00 | 0.00 | 0.00 | 26 | 1005.5 |
| 20260505064911 | 20 | 235 | 24.1 | 29.0 | 0.00 | 0.00 | 0.00 | 26 | 1005.5 |
| 20260505064408 | 20 | 234 | 24.1 | 32.2 | 0.00 | 0.00 | 0.00 | 26 | 1005.4 |
| 20260505063906 | 20 | 232 | 24.1 | 30.6 | 0.00 | 0.00 | 0.00 | 26 | 1005.4 |
| 20260505063402 | 20 | 239 | 27.4 | 35.4 | 0.00 | 0.00 | 0.00 | 25 | 1005.6 |
| 20260505062859 | 20 | 237 | 30.6 | 37.0 | 0.00 | 0.00 | 0.00 | 25 | 1005.4 |
| 20260505062356 | 21 | 241 | 29.0 | 38.6 | 0.00 | 0.00 | 0.00 | 25 | 1005.5 |
| 20260505061852 | 21 | 243 | 29.0 | 37.0 | 0.00 | 0.00 | 0.00 | 25 | 1005.4 |
| 20260505061351 | 21 | 242 | 27.4 | 38.6 | 0.00 | 0.00 | 0.00 | 25 | 1005.4 |
| 20260505060848 | 21 | 249 | 27.4 | 40.2 | 0.00 | 0.00 | 0.00 | 25 | 1005.6 |
| 20260505060345 | 21 | 241 | 25.7 | 38.6 | 0.00 | 0.00 | 0.00 | 24 | 1005.5 |
| 20260505055841 | 21 | 238 | 25.7 | 38.6 | 0.00 | 0.00 | 0.00 | 24 | 1005.5 |
| 20260505055337 | 21 | 248 | 25.7 | 41.8 | 0.00 | 0.00 | 0.00 | 24 | 1005.4 |
| 20260505054834 | 21 | 237 | 32.2 | 41.8 | 0.00 | 0.00 | 0.00 | 24 | 1005.5 |
| 20260505054332 | 21 | 234 | 30.6 | 41.8 | 0.00 | 0.00 | 0.00 | 24 | 1005.5 |
| 20260505053830 | 21 | 241 | 27.4 | 45.1 | 0.00 | 0.00 | 0.00 | 24 | 1005.4 |
| 20260505053326 | 21 | 245 | 22.5 | 37.0 | 0.00 | 0.00 | 0.00 | 23 | 1005.6 |
| 20260505052823 | 22 | 245 | 33.8 | 41.8 | 0.00 | 0.00 | 0.00 | 23 | 1005.4 |
| 20260505052320 | 22 | 239 | 33.8 | 37.0 | 0.00 | 0.00 | 0.00 | 23 | 1005.5 |
| 20260505051817 | 22 | 237 | 25.7 | 38.6 | 0.00 | 0.00 | 0.00 | 23 | 1005.5 |
| 20260505051314 | 22 | 231 | 24.1 | 40.2 | 0.00 | 0.00 | 0.00 | 23 | 1005.2 |
| 20260505050812 | 22 | 240 | 30.6 | 45.1 | 0.00 | 0.00 | 0.00 | 23 | 1005.7 |
| 20260505050311 | 22 | 233 | 40.2 | 41.8 | 0.00 | 0.00 | 0.00 | 23 | 1005.6 |
| 20260505041740 | 21 | 229 | 33.8 | 38.6 | 0.00 | 0.00 | 0.00 | 24 | 1005.8 |
| 20260505041237 | 21 | 232 | 24.1 | 33.8 | 0.00 | 0.00 | 0.00 | 24 | 1005.7 |
| 20260505040735 | 21 | 228 | 24.1 | 35.4 | 0.00 | 0.00 | 0.00 | 25 | 1005.8 |
| 20260505040232 | 21 | 228 | 29.0 | 30.6 | 0.00 | 0.00 | 0.00 | 25 | 1005.9 |
| 20260505035729 | 21 | 235 | 27.4 | 32.2 | 0.00 | 0.00 | 0.00 | 24 | 1005.7 |
| 20260505035225 | 22 | 235 | 25.7 | 30.6 | 0.00 | 0.00 | 0.00 | 24 | 1005.8 |
| 20260505034722 | 22 | 240 | 20.9 | 32.2 | 0.00 | 0.00 | 0.00 | 24 | 1005.9 |
| 20260505034219 | 22 | 227 | 20.9 | 32.2 | 0.00 | 0.00 | 0.00 | 24 | 1005.7 |
| 20260505033715 | 22 | 236 | 24.1 | 33.8 | 0.00 | 0.00 | 0.00 | 24 | 1005.7 |
| 20260505033214 | 22 | 227 | 27.4 | 37.0 | 0.00 | 0.00 | 0.00 | 24 | 1005.7 |
| 20260505032711 | 22 | 232 | 20.9 | 27.4 | 0.00 | 0.00 | 0.00 | 24 | 1005.5 |
| 20260505032207 | 22 | 225 | 29.0 | 32.2 | 0.00 | 0.00 | 0.00 | 24 | 1005.7 |
| 20260505031705 | 22 | 227 | 19.3 | 29.0 | 0.00 | 0.00 | 0.00 | 24 | 1005.5 |
| 20260505031201 | 22 | 224 | 19.3 | 29.0 | 0.00 | 0.00 | 0.00 | 24 | 1005.7 |
| 20260505030658 | 22 | 220 | 20.9 | 25.7 | 0.00 | 0.00 | 0.00 | 23 | 1005.4 |
| 20260505030153 | 22 | 224 | 20.9 | 25.7 | 0.00 | 0.00 | 0.00 | 23 | 1005.5 |
| 20260505025649 | 22 | 225 | 19.3 | 37.0 | 0.00 | 0.00 | 0.00 | 22 | 1005.5 |
| 20260505025148 | 22 | 228 | 27.4 | 30.6 | 0.00 | 0.00 | 0.00 | 22 | 1005.4 |
| 20260505024645 | 23 | 228 | 25.7 | 33.8 | 0.00 | 0.00 | 0.00 | 21 | 1005.4 |
| 20260505024142 | 23 | 225 | 24.1 | 40.2 | 0.00 | 0.00 | 0.00 | 21 | 1005.5 |
| 20260505023640 | 23 | 226 | 30.6 | 40.2 | 0.00 | 0.00 | 0.00 | 20 | 1005.2 |
| 20260505023137 | 23 | 231 | 30.6 | 35.4 | 0.00 | 0.00 | 0.00 | 20 | 1005.4 |
| 20260505022635 | 23 | 236 | 29.0 | 33.8 | 0.00 | 0.00 | 0.00 | 19 | 1005.1 |
| 20260505022131 | 23 | 216 | 17.7 | 25.7 | 0.00 | 0.00 | 0.00 | 17 | 1005.0 |
| 20260505021628 | 23 | 222 | 20.9 | 29.0 | 0.00 | 0.00 | 0.00 | 17 | 1005.1 |
| 20260505021125 | 23 | 240 | 24.1 | 27.4 | 0.00 | 0.00 | 0.00 | 17 | 1004.8 |
| 20260505020620 | 23 | 232 | 24.1 | 32.2 | 0.00 | 0.00 | 0.00 | 17 | 1005.1 |